Eagle River, WI

8:03 PM CDT on August 27, 2016 (GMT -0500)
Eagle River Union

Weather History for KEGV - July, 2013

Change the Weather History Date:

Thursday, July 4, 2013

  Actual Average Record
Temperature  
Mean Temperature 60 °F -  
Max Temperature 68 °F 73 °F 86 °F (1999)
Min Temperature 56 °F 53 °F 39 °F (2014)
Degree Days  
Heating Degree Days 6    
Growing Degree Days 10 (Base 50)    
Moisture  
Dew Point 58 °F    
Average Humidity 94    
Maximum Humidity 100    
Minimum Humidity 67    
Precipitation  
Precipitation 0.00 in - - ()
Sea Level Pressure  
Sea Level Pressure 30.03 in    
Wind  
Wind Speed 1 mph (SW)    
Max Wind Speed 6 mph    
Max Gust Speed -    
Visibility 9 miles    
Events      
Averages and records for this station are not official NWS values.
T = Trace of Precipitation, MM = Missing Value Source: NWS Daily Summary

Daily Weather History Graph

Daily Weather History Graph

Search for Another Location

Airport or City:

Trip Planner

Search our weather history database for the weather conditions in past years. The results will help you decide how hot, cold, wet, or windy it might be!

Date:

Astronomy

Jul. 04, 2013 Rise Set
Actual Time 5:12 AM CDT 8:50 PM CDT
Civil Twilight 4:34 AM CDT 9:28 PM CDT
Nautical Twilight 3:43 AM CDT 10:18 PM CDT
Astronomical Twilight 2:35 AM CDT 11:26 PM CDT
Moon 2:33 AM CDT (7/4) 5:50 PM CDT (7/4)
Length of Visible Light 16h 53m
Length of Day
15h 37m
Waning Crescent, 11% of the Moon is Illuminated
Jul 4
Waning Crescent
Jul 8
New
Jul 15
First Quarter
Jul 22
Full
Jul 29
Last Quarter

Hourly Weather History & Observations

Time (CDT) Temp. Dew Point Humidity Pressure Visibility Wind Dir Wind Speed Gust Speed Precip Events Conditions
12:55 AM 59.5 °F 57.4 °F 93% 30.04 in 10.0 mi Calm Calm - N/A   Overcast
1:35 AM 59.0 °F 57.6 °F 95% 30.04 in 10.0 mi Calm Calm - N/A   Scattered Clouds
1:55 AM 59.5 °F 58.1 °F 95% 30.03 in 10.0 mi Calm Calm - N/A   Scattered Clouds
2:15 AM 58.3 °F 57.7 °F 98% 30.03 in 10.0 mi Calm Calm - N/A   Scattered Clouds
2:35 AM 56.5 °F 56.3 °F 99% 30.03 in 7.0 mi Calm Calm - N/A   Scattered Clouds
2:55 AM 57.6 °F 57.6 °F 100% 30.03 in 10.0 mi Calm Calm - N/A   Mostly Cloudy
3:15 AM 57.7 °F 57.4 °F 99% 30.03 in 10.0 mi Calm Calm - N/A   Overcast
3:35 AM 57.6 °F 57.2 °F 99% 30.03 in 10.0 mi Calm Calm - N/A   Overcast
3:55 AM 58.5 °F 57.9 °F 98% 30.02 in 10.0 mi Calm Calm - N/A   Overcast
4:15 AM 58.5 °F 57.7 °F 97% 30.03 in 10.0 mi Calm Calm - N/A   Overcast
4:35 AM 58.3 °F 57.7 °F 98% 30.03 in 10.0 mi Calm Calm - N/A   Mostly Cloudy
4:55 AM 58.3 °F 57.6 °F 97% 30.03 in 7.0 mi Calm Calm - N/A   Overcast
5:15 AM 59.0 °F 58.1 °F 97% 30.03 in 10.0 mi Calm Calm - N/A   Overcast
5:35 AM 59.2 °F 58.3 °F 97% 30.04 in 7.0 mi South 3.5 mph - N/A   Overcast
5:55 AM 59.5 °F 58.6 °F 97% 30.04 in 7.0 mi South 3.5 mph - N/A   Overcast
6:15 AM 60.1 °F 59.0 °F 96% 30.04 in 7.0 mi SW 4.6 mph - N/A   Overcast
6:35 AM 60.8 °F 59.4 °F 95% 30.04 in 7.0 mi SW 5.8 mph - N/A   Overcast
7:15 AM 61.7 °F 59.7 °F 93% 30.04 in 10.0 mi SW 3.5 mph - N/A   Overcast
7:35 AM 62.8 °F 59.0 °F 87% 30.05 in 10.0 mi SW 4.6 mph - N/A   Overcast
7:55 AM 63.5 °F 58.3 °F 83% 30.04 in 10.0 mi SW 4.6 mph - N/A   Overcast
8:55 AM 68.0 °F 56.7 °F 67% 30.04 in 10.0 mi SSW 4.6 mph - N/A   Mostly Cloudy